Volver al catálogo

CZ-6A DEB

ActivoSSO
NORAD 54350·DEBRIS·🇨🇳 China

Lanzado Nov 11, 2022 desde Taiyuan Satellite Launch Center

Loading…

Próximos Pases (próximas 24 horas)

TLE

ActualizadoSource: Space-Track

Época: Sep 14, 2026, 09:53 UTC

1 54350U 22151CV  26257.41227733  .00000103  00000-0  50684-4 0  9990
2 54350  98.6943 303.1863 0068557  75.1492 285.7273 14.34895584200435

Sigue CZ-6A DEB en tiempo real con AllMySat

Download on the App Store